Weather History for KCGC - June, 2013

Change the Weather History Date:

Monday, June 24, 2013

  Actual Average (KGNV) Record (KGNV)
Temperature  
Mean Temperature 82 °F 80 °F  
Max Temperature 93 °F 90 °F 101 °F (1950)
Min Temperature 71 °F 71 °F 62 °F (1947)
Degree Days  
Heating Degree Days 0 0  
Month to date heating degree days 0  
Since 1 June heating degree days 0  
Since 1 July heating degree days 1218  
Cooling Degree Days 17 15  
Month to date cooling degree days 344  
Year to date cooling degree days 854  
Since 1 June cooling degree days 344  
Growing Degree Days 32 (Base 50)    
Moisture  
Dew Point 71 °F    
Average Humidity 77    
Maximum Humidity 100    
Minimum Humidity 41    
Precipitation  
Precipitation 0.31 in 0.27 in 6.95 in (2012)
Month to date precipitation 5.49  
Year to date precipitation 21.48  
Snow  
Snow 0.00 in 0.00 in 0.00 in ()
Month to date snowfall 0.0  
Since 1 June snowfall 0.0  
Since 1 July snowfall 0.0  
Snow Depth -    
Sea Level Pressure  
Sea Level Pressure 30.14 in    
Wind  
Wind Speed 2 mph (East)    
Max Wind Speed 9 mph    
Max Gust Speed 20 mph    
Visibility 10 miles    
Events Rain , Thunderstorm    
T = Trace of Precipitation, MM = Missing Value Source: NWS Daily Summary

Daily Weather History Graph

Daily Weather History Graph

Search for Another Location

Airport or City:

Trip Planner

Search our weather history database for the weather conditions in past years. The results will help you decide how hot, cold, wet, or windy it might be!

Date:

Astronomy

Jun. 24, 2013 Rise Set
Actual Time 6:33 AM EDT 8:32 PM EDT
Civil Twilight 6:06 AM EDT 8:59 PM EDT
Nautical Twilight 5:33 AM EDT 9:32 PM EDT
Astronomical Twilight 4:58 AM EDT 10:06 PM EDT
Moon 9:44 PM EDT (6/24) 7:51 AM EDT (6/24)
Length of Visible Light 14h 53m
Length of Day
13h 59m
Full, 98% of the Moon is Illuminated
Jun 24
Full
Jun 30
Last Quarter
Jul 8
New
Jul 15
First Quarter
Jul 22
Full

Hourly Weather History & Observations

Time (EDT) Temp. Heat Index Dew Point Humidity Pressure Visibility Wind Dir Wind Speed Gust Speed Precip Events Conditions
12:15 AM 75.2 °F - 71.6 °F 89% 30.15 in 10.0 mi Calm Calm - N/A   Clear
12:35 AM 75.2 °F - 71.6 °F 89% 30.14 in 10.0 mi Calm Calm - N/A   Clear
12:55 AM 75.2 °F - 71.6 °F 89% 30.15 in 10.0 mi Calm Calm - N/A   Clear
1:15 AM 75.2 °F - 71.6 °F 89% 30.15 in 10.0 mi Calm Calm - N/A   Clear
1:35 AM 73.4 °F - 71.6 °F 94% 30.14 in 10.0 mi Calm Calm - N/A   Clear
1:55 AM 73.4 °F - 71.6 °F 94% 30.14 in 10.0 mi Calm Calm - N/A   Clear
2:15 AM 73.4 °F - 71.6 °F 94% 30.13 in 10.0 mi Calm Calm - N/A   Clear
2:35 AM 73.4 °F - 71.6 °F 94% 30.13 in 10.0 mi Calm Calm - N/A   Clear
2:55 AM 73.4 °F - 71.6 °F 94% 30.13 in 10.0 mi Calm Calm - N/A   Clear
3:15 AM 73.4 °F - 71.6 °F 94% 30.13 in 10.0 mi Calm Calm - N/A   Clear
3:35 AM 73.4 °F - 71.6 °F 94% 30.13 in 10.0 mi Calm Calm - N/A   Clear
3:55 AM 73.4 °F - 71.6 °F 94% 30.13 in 10.0 mi Calm Calm - N/A   Clear
4:15 AM 73.4 °F - 71.6 °F 94% 30.13 in 10.0 mi Calm Calm - N/A   Clear
4:35 AM 73.4 °F - 71.6 °F 94% 30.13 in 10.0 mi Calm Calm - N/A   Clear
4:55 AM 73.4 °F - 71.6 °F 94% 30.13 in 10.0 mi Calm Calm - N/A   Clear
5:15 AM 73.4 °F - 71.6 °F 94% 30.14 in 7.0 mi Calm Calm - N/A   Clear
5:35 AM 73.4 °F - 71.6 °F 94% 30.14 in 10.0 mi Calm Calm - N/A   Clear
5:55 AM 71.6 °F - 71.6 °F 100% 30.15 in 7.0 mi Calm Calm - N/A   Clear
6:15 AM 71.6 °F - 71.6 °F 100% 30.15 in 7.0 mi Calm Calm - N/A   Clear
6:35 AM 71.6 °F - 69.8 °F 94% 30.16 in 7.0 mi Calm Calm - N/A   Clear
6:55 AM 71.6 °F - 71.6 °F 100% 30.16 in 7.0 mi Calm Calm - N/A   Clear
7:15 AM 71.6 °F - 71.6 °F 100% 30.17 in 7.0 mi Calm Calm - N/A   Clear
7:35 AM 73.4 °F - 71.6 °F 94% 30.17 in 7.0 mi Calm Calm - N/A   Clear
7:55 AM 75.2 °F - 73.4 °F 94% 30.17 in 10.0 mi East 3.5 mph - N/A   Clear
8:15 AM 77.0 °F - 73.4 °F 89% 30.18 in 10.0 mi East 4.6 mph - N/A   Clear
8:35 AM 78.8 °F - 73.4 °F 83% 30.19 in 10.0 mi ESE 4.6 mph - N/A   Clear
8:55 AM 80.6 °F 84.6 °F 71.6 °F 74% 30.19 in 10.0 mi East 6.9 mph - N/A   Clear
9:15 AM 80.6 °F 84.6 °F 71.6 °F 74% 30.19 in 10.0 mi East 6.9 mph - N/A   Clear
9:35 AM 82.4 °F 87.2 °F 71.6 °F 70% 30.19 in 10.0 mi East 8.1 mph - N/A   Scattered Clouds
9:55 AM 84.2 °F 89.6 °F 71.6 °F 66% 30.20 in 10.0 mi East 6.9 mph - N/A   Scattered Clouds
10:15 AM 86.0 °F 91.8 °F 71.6 °F 62% 30.20 in 10.0 mi East 8.1 mph - N/A   Scattered Clouds
10:35 AM 86.0 °F 90.4 °F 69.8 °F 58% 30.20 in 10.0 mi ESE 6.9 mph - N/A   Scattered Clouds
10:55 AM 87.8 °F 92.6 °F 69.8 °F 55% 30.20 in 10.0 mi ESE 5.8 mph - N/A   Mostly Cloudy
11:15 AM 87.8 °F 92.6 °F 69.8 °F 55% 30.20 in 10.0 mi SE 5.8 mph - N/A   Scattered Clouds
11:35 AM 86.0 °F 90.4 °F 69.8 °F 58% 30.19 in 10.0 mi Calm Calm - N/A   Scattered Clouds
11:55 AM 87.8 °F 92.6 °F 69.8 °F 55% 30.19 in 10.0 mi ESE 3.5 mph - N/A   Scattered Clouds
12:15 PM 87.8 °F 91.4 °F 68.0 °F 52% 30.18 in 10.0 mi SE 3.5 mph - N/A   Mostly Cloudy
12:35 PM 89.6 °F 93.4 °F 68.0 °F 49% 30.17 in 10.0 mi East 4.6 mph - N/A   Scattered Clouds
12:55 PM 89.6 °F 93.4 °F 68.0 °F 49% 30.18 in 10.0 mi East 4.6 mph - N/A   Mostly Cloudy
1:15 PM 89.6 °F 93.4 °F 68.0 °F 49% 30.17 in 10.0 mi ENE 6.9 mph - N/A   Mostly Cloudy
1:35 PM 87.8 °F 91.4 °F 68.0 °F 52% 30.17 in 10.0 mi SE 3.5 mph - N/A   Mostly Cloudy
1:55 PM 91.4 °F 95.4 °F 68.0 °F 46% 30.15 in 10.0 mi ESE 4.6 mph - N/A   Scattered Clouds
2:15 PM 89.6 °F 93.4 °F 68.0 °F 49% 30.14 in 10.0 mi ENE 4.6 mph - N/A   Scattered Clouds
2:35 PM 91.4 °F 95.4 °F 68.0 °F 46% 30.14 in 10.0 mi East 4.6 mph - N/A   Clear
2:55 PM 93.2 °F 96.2 °F 66.2 °F 41% 30.13 in 10.0 mi East 3.5 mph - N/A   Clear
3:15 PM 89.6 °F 94.7 °F 69.8 °F 52% 30.12 in 10.0 mi SW 4.6 mph - N/A   Mostly Cloudy
3:35 PM 87.8 °F 93.8 °F 71.6 °F 58% 30.12 in 10.0 mi West 6.9 mph - N/A   Overcast
3:55 PM 86.0 °F 91.8 °F 71.6 °F 62% 30.11 in 10.0 mi WNW 5.8 mph - N/A   Overcast
4:15 PM 87.8 °F 93.8 °F 71.6 °F 58% 30.11 in 10.0 mi West 9.2 mph - N/A   Mostly Cloudy
4:35 PM 86.0 °F 91.8 °F 71.6 °F 62% 30.11 in 10.0 mi WNW 4.6 mph - N/A   Mostly Cloudy
4:55 PM 87.8 °F 93.8 °F 71.6 °F 58% 30.10 in 10.0 mi WNW 6.9 mph - N/A   Scattered Clouds
5:15 PM 87.8 °F 93.8 °F 71.6 °F 58% 30.09 in 10.0 mi West 6.9 mph - N/A   Scattered Clouds
5:35 PM 87.8 °F 93.8 °F 71.6 °F 58% 30.08 in 10.0 mi NW 5.8 mph - N/A   Clear
5:55 PM 87.8 °F 93.8 °F 71.6 °F 58% 30.08 in 10.0 mi West 8.1 mph - N/A   Clear
6:15 PM 87.8 °F 93.8 °F 71.6 °F 58% 30.06 in 10.0 mi West 6.9 mph - N/A   Clear
6:35 PM 87.8 °F 93.8 °F 71.6 °F 58% 30.07 in 10.0 mi WNW 4.6 mph - N/A Thunderstorm Thunderstorm
6:55 PM 87.8 °F 93.8 °F 71.6 °F 58% 30.08 in 10.0 mi West 8.1 mph - N/A Thunderstorm Thunderstorm
7:15 PM 86.0 °F 91.8 °F 71.6 °F 62% 30.10 in 10.0 mi WSW 4.6 mph - N/A Thunderstorm Thunderstorm
7:35 PM 78.8 °F - 71.6 °F 78% 30.10 in 2.5 mi NE 8.1 mph 19.6 mph 0.24 in Rain , Thunderstorm Heavy Thunderstorms and Rain
7:55 PM 77.0 °F - 73.4 °F 89% 30.11 in 10.0 mi NNW 5.8 mph - 0.30 in Rain , Thunderstorm Light Thunderstorms and Rain
8:15 PM 77.0 °F - 73.4 °F 89% 30.11 in 10.0 mi Calm Calm - N/A Rain , Thunderstorm Light Thunderstorms and Rain
8:35 PM 77.0 °F - 73.4 °F 89% 30.11 in 10.0 mi Calm Calm - N/A Thunderstorm Thunderstorm
8:55 PM 77.0 °F - 75.2 °F 94% 30.12 in 10.0 mi Calm Calm - N/A Thunderstorm Overcast
9:15 PM 77.0 °F - 73.4 °F 89% 30.13 in 10.0 mi Calm Calm - N/A Thunderstorm Thunderstorm
9:35 PM 77.0 °F - 73.4 °F 89% 30.13 in 10.0 mi Calm Calm - N/A Thunderstorm Thunderstorm
9:55 PM 75.2 °F - 73.4 °F 94% 30.14 in 10.0 mi NNE 3.5 mph - N/A Thunderstorm Overcast
10:15 PM 75.2 °F - 73.4 °F 94% 30.15 in 10.0 mi Calm Calm - N/A Thunderstorm Thunderstorm
10:35 PM 75.2 °F - 73.4 °F 94% 30.14 in 10.0 mi Calm Calm - N/A Thunderstorm Overcast
10:55 PM 73.4 °F - 73.4 °F 100% 30.16 in 10.0 mi Calm Calm - N/A Thunderstorm Overcast
11:15 PM 73.4 °F - 71.6 °F 94% 30.17 in 10.0 mi Calm Calm - N/A Thunderstorm Overcast
11:35 PM 73.4 °F - 71.6 °F 94% 30.17 in 10.0 mi Calm Calm - N/A Rain , Thunderstorm Light Thunderstorms and Rain
11:55 PM 73.4 °F - 71.6 °F 94% 30.17 in 10.0 mi Calm Calm - 0.01 in Thunderstorm Drizzle